Tracking 19908 objects as of 18-Oct-2019
HD Live streaming from Space Station
objects crossing your sky now

DELTA 1 R/B

Track DELTA 1 R/B now!
10-day predictions
DELTA 1 R/B is classified as:


NORAD ID: 20323
Int'l Code: 1989-089B
Perigee: 688.3 km
Apogee: 788.2 km
Inclination: 97.1 °
Period: 99.4 minutes
Semi major axis: 7109 km
RCS: 8.9124 m2 (large)
Launch date: November 18, 1989
Source: United States (US)
Launch site: AIR FORCE WESTERN TEST RANGE (AFWTR)

Note: This is a ROCKET BODY
aabbcc
Your satellite tracking list
Your tracking list is empty




NASA's NSSDC Master Catalog

Two Line Element Set (TLE):
1 20323U 89089B   19291.17310162  .00000028  00000-0  16471-4 0  9990
2 20323  97.0663 111.3462 0070254 277.1410  82.1802 14.48317838578188
Source of the keplerian elements: AFSPC